Montgomery Regional (Dannelly Field) Airport
KMGM : now visible

Airfield :











YOU CAN JOIN US ON...

 
LOGIN :

Register | Disclaimer

   EN    FR    IT 

 









Legend :    VFR   Marginal VFR   IFR   Intensive IFR   Very Intensive IFR
Visi :
Ceiling :
>= 8 km
>= 3000ft
5 to 8 km
1000 to 3000 ft
1500m to 5 km
500 to 1000 ft
800 to 1500m
200 to 500 ft
< 800m
< 200 ft
Symbols :   Thunderstorms  Fog  Heavy snow  Heavy precipitations  Wind > 20 kt






- Airport Elevation : 221 ft
- IATA code : MGM


KMGM - Montgomery Regional (Dannelly Field)

CURRENT METAR :
  • 270853Z AUTO 19004KT 10SM CLR 18/16 A3009 RMK AO2 SLP187 T01780161 53004

EXPIRED METARs :
  • 270753Z AUTO 18004KT 10SM CLR 18/16 A3009 RMK AO2 SLP186 T01780161
  • 270653Z AUTO 18005KT 10SM CLR 18/17 A3008 RMK AO2 SLP184 T01830167

TAF KMGM
Valid from the 27 at 06:00 until the 28 at 06:00 UTC


270520Z 2706/2806 19007KT P6SM SCT250
FM270800 19007KT P6SM BKN022
FM271000 19006KT P6SM BKN007
FM271600 19011KT P6SM BKN018
FM272000 18012G21KT P6SM BKN250
KZTL FIR / North America



MET'MAP, your aeronautical weather chart ! - Copyright ORBIFLY December 2007 - Disclaimer

ORBIFLY MET'MAP TEAM :

Programming & Development : Alexandra Zaïnal
Concept & original design : Baudouin d'Aumeries
Assistance for programming : Marc-Olivier Méhu
Technical & hardware support : Manuel Goepfert

Contact : metmap@orbifly.com




SOURCES & CREDITS :

   NOAA       Earth
Advisory